TIANMU-1 03

Last updated on Thu Oct 30 2025 00:02:23 GMT+0000 (Coordinated Universal Time)

1 55973U 23039A 25302.50756911 .00018304 00000+0 47387-3 0 9999 2 55973 97.5116 103.9874 0003246 197.8391 162.2740 15.39112837145254
UTC large
Height (km)
Speed (km/s)
/
Latitude / Longitude
Inclination (degrees)
Orbital Period (minutes)
Azimuth
Elevation
Range (km)
Doppler Factor

Next 0 passes for location: London (51.5072 / 0.1276)

Sorry there are no passes over London.